Regional Weather Roundup
Issued by NWS Charleston, WV

Home | Current Version | Previous Version | Graphics & Text | Print | Product List | Glossary On
Versions: 1 2 3 4 5 6 7 8 9 10 11 12 13 14 15 16 17 18 19 20 21 22 23 24 25 26 27 28 29 30 31 32 33 34 35 36 37 38 39 40 41 42 43 44 45 46 47 48 49 50
000
ASUS41 KRLX 052010
RWRRLX
West Virginia Regional Weather Roundup
National Weather Service Charleston WV
400 PM EDT SUN JUL 05 2015

Note: "fair" indicates few or no clouds below 12,000 feet with no
significant weather and/or obstructions to visibility.

WVZ003-052100-
Northern Panhandle of West Virginia

CITY           SKY/WX    TMP DP  RH WIND       PRES   REMARKS
WHEELING       MOSUNNY   81  60  48 E8        30.10F
$$

WVZ009-052100-
Northwest West Virginia

CITY           SKY/WX    TMP DP  RH WIND       PRES   REMARKS
PARKERSBURG    CLOUDY    82  65  56 NE3       30.09F
$$

WVZ006-052100-
Western West Virginia

CITY           SKY/WX    TMP DP  RH WIND       PRES   REMARKS
HUNTINGTON     CLOUDY    77  69  76 SE3       30.05F
$$

WVZ015-052100-
West Central West Virginia

CITY           SKY/WX    TMP DP  RH WIND       PRES   REMARKS
CHARLESTON     TSTM      75  71  87 W3        30.05F
$$

WVZ022-031-052100-
North Central West Virginia

CITY           SKY/WX    TMP DP  RH WIND       PRES   REMARKS
CLARKSBURG     LGT RAIN  79  65  62 E5        30.09F
MORGANTOWN     PTSUNNY   85  60  42 CALM      30.10F
$$

WVZ025-035-042-045-052100-
Southern West Virginia

CITY           SKY/WX    TMP DP  RH WIND       PRES   REMARKS
BECKLEY        TSTM      71  66  84 SE16      30.12F
LOGAN          TSTM      72  70  94 CALM      30.02S
BLUEFIELD      HVY RAIN  74  66  76 VRB5      30.14F
LEWISBURG      PTSUNNY   79  65  60 SE8       30.14F
$$

WVZ047-052100-
Northern Mountains of West Virginia

CITY           SKY/WX    TMP DP  RH WIND       PRES   REMARKS
ELKINS         CLOUDY    79  65  62 N3        30.13F
$$

WVZ052-052100-
Eastern Panhandle of West Virginia

CITY           SKY/WX    TMP DP  RH WIND       PRES   REMARKS
MARTINSBURG    MOSUNNY   82  66  58 SE6       30.12F
PETERSBURG     PTSUNNY   81  64  56 CALM      30.10F
$$



USA.gov is the U.S. government's official web portal to all federal, state and local government web resources and services.